星链-31484 (STARLINK-31484 )

导读

STARLINK-31484是美国SpaceX星链星座的成员,于2024年2月23日发射入轨。星链项目旨在构建全球卫星互联网星座,为全球偏远地区等提供低延迟高速网络服务。该卫星延续星链标准设计,依托一箭多星发射方式部署,进一步扩充了星链星座的在轨规模,推动全球卫星互联网覆盖网络的完善。

Basic Information
目录编号:
59005
目录名称:
STARLINK-31484
国际标识:
2024-036H
轨道中心:
EARTH
卫星名称:
星链-31484
卫星全名:
星链-31484 (STARLINK-31484 )
卫星状态:
在轨 (已飞行924 天)
发射日期:
2024-02-23 UTC
国别 :
美国 (US)
星等 :
--
Orbit Information
数据来源 国际轨道数据
星历时间: 2026-09-04T13:02:50+0800
8小时前
查看轨道信息
半长轴: 6840.88km
偏心率: 0.0001086
轨道倾角: 53.161°
近地点辐角 99.627°
升交点赤经 327.637°
平近点角 260.485°
近地点: 462km
远地点: 463.486km
周期: 93.849分钟
每日圈数: 15.343869
Detailed Information
固有亮度:
5
最大亮度:
0.3
卫星平台:
Starlink v2.0 mini
覆盖范围:
全球
运营商:
太空探索技术公司
运营商所在国:
美国
制造商(研发单位):
太空探索技术公司
制造商所在国:
美国
使用方式:
暂无
Satellite Introduction
星链(Starlink)计划是由太空探索技术公司(SpaceX)提出的一个巨型低轨卫星互联网星座项目,计划在2019年至2024年间在太空搭建由约1.2万颗卫星组成的“星链”网络,其中1584颗将部署在地球上空550千米处的近地轨道,并从2020年开始工作。该卫星仍在工作。
2D Orbit Map
3D Orbit Map
Orbit Altitude Analysis Chart
Orbit Inclination Analysis Chart
Orbit Comprehensive Analysis Chart
View Comprehensive Chart
Conjunction Data List
Event ID Objects TCA Miss Dist (km) Collision Risk Probability Collision Risk Index (CRI) Action
CDM_260906-191305-900506-602921
2026-09-06T
19:13:07+0000
0.685 km
远距离
2.916017E-5 中风险 0.64
CDM_260905-135805-261905-900521
2026-09-05T
13:58:28+0000
2.665 km
极远距离
1.385807E-6 低风险 0.38
CDM_260903-195705-274605-900523
2026-09-03T
19:57:47+0000
2.464 km
极远距离
1.369903E-6 低风险 0.38
CDM_260905-083605-174305-900521
2026-09-05T
08:36:53+0000
2.775 km
极远距离
1.189435E-6 低风险 0.37
CDM_260905-074705-111305-900521
2026-09-05T
07:47:56+0000
2.929 km
极远距离
1.15673E-6 低风险 0.36
CDM_260905-135405-404305-900521
2026-09-05T
13:54:42+0000
2.136 km
极远距离
8.533618E-7 极低风险 0.34